Tracking 31027 objects as of 19-Jul-2025
HD Live streaming from Space Station
objects crossing your sky now

FENGYUN 1C DEB

Track FENGYUN 1C DEB now!
10-day predictions


NORAD ID: 30504
Int'l Code: 1999-025AHS
Perigee: 752.5 km
Apogee: 911.6 km
Inclination: 99.0 °
Period: 101.4 minutes
Semi major axis: 7203 km
RCS: 0.0107 m2 (small)
Launch date: May 10, 1999
Source: People's Republic of China (PRC)
Launch site: Taiyaun Space Center, China (TSC)

Note: This is SATELLITE DEBRIS
Your satellite tracking list
COSMOS 1275 DEB
Track 1 satellite(s)




NASA's NSSDC Master Catalog

Two Line Element Set (TLE):
1 30504U 99025AHS 25199.62299321  .00000886  00000-0  41203-3 0  9992
2 30504  99.0426 242.6483 0110479 277.0100 236.3923 14.20129182953052
Source of the keplerian elements: AFSPC